469P/PanSTARRS (2016)

Japanese version
Home page
Updated on October 5, 2023

---------------------------------------------------------------------

* Profile

Designation 469P/2015 XG422
Discovery Date December 13, 2015
Magnitude 22.4 mag
Discoverer Pan-STARRS 1 telescope (Haleakala)

* Orbital Elements

Epoch 2016 Nov. 28.0 TT = JDT 2457720.5                                         
T 2016 Dec. 2.09590 TT                                  Rudenko                 
q   2.9905401            (2000.0)            P               Q                  
n   0.10928995     Peri.   43.61647     -0.73531607     +0.67769681             
a   4.3326062      Node   178.98612     -0.67687588     -0.73391482             
e   0.3097595      Incl.   20.19517     -0.03390156     -0.04578295             
P   9.02                                                                        
>From 71 observations 2010 Sept. 13-2017 June 5, mean residual 0".3.             

* Magnitudes Graph

        H = 15.0  G = 0.15

---------------------------------------------------------------------

The orbital elements are published on M.P.E.C. 2023-P35.
The magnitudes graphs are made with Comet for Windows.

---------------------------------------------------------------------

Copyright(C) Seiichi Yoshida (comet@aerith.net). All rights reserved.